Flag for Germany Weather past 2 weeks in Rotenburg (Wümme), Lower Saxony, Germany

Now
79 °F

Passing clouds.


Feels Like: 79 °F
Forecast: 60 / 80 °F
Wind: 13 mph from Northeast

Location: Bremen Airport

Current Time: Jul 23, 2014 at 1:57:37 PM

Latest Report: Jul 23, 2014 at 1:20 PM


Visibility: N/A

Pressure: 30.12 "Hg

Humidity: 37%

Dew point: 50 °F

Location of Rotenburg (Wümme)Location

Historic Weather in Rotenburg (Wümme) — Graph

°F

Rotenburg (Wümme) temperature yesterday

Maximum temperature yesterday: 82 °F (at 3:50 PM)
Minimum temperature yesterday: 61 °F (at 4:50 AM)
Average temperature yesterday: 71 °F

Past Weeks' High & Low Weather Summary

 TemperatureHumidityPressure
High90 °F (Jul 19, 1:50 PM)100% (Jul 8, 5:50 PM)30.18 "Hg (Jul 8, 5:50 PM)
Low54 °F (Jul 17, 4:50 AM)27% (Jul 19, 4:20 PM)29.59 "Hg (Jul 9, 2:50 PM)
Average70 °F71%29.92 "Hg
* Reported Jul 8 12:20 PM — Jul 23 12:20 PM, Rotenburg (Wümme), Weather by CustomWeather, © 2014

Note: Actual official high and low records may vary slightly from our data, if they occured in-between our weather recording intervals... More about our weather records

Advertising

Rotenburg (Wümme) weather history for previous 24 hours

 ConditionsComfort  
Time TempWeatherWind HumidityBarometerVisibility
12:20 PM
Jul 23
79 °FPassing clouds.16 mph39%30.12 "HgN/A
7:20 AM66 °FSunny.8 mph73%30.15 "Hg10 mi
6:50 AM64 °FPassing clouds.7 mph78%30.15 "HgN/A
6:20 AM63 °FPassing clouds.8 mph83%30.15 "HgN/A
5:50 AM63 °FClear.8 mph83%30.15 "Hg10 mi
5:20 AM63 °FClear.9 mph83%30.15 "Hg10 mi
4:50 AM63 °FClear.12 mph83%30.12 "Hg10 mi
4:20 AM64 °FClear.10 mph78%30.12 "Hg10 mi
3:50 AM64 °FClear.10 mph78%30.15 "Hg10 mi
3:20 AM64 °FClear.12 mph78%30.15 "Hg10 mi
2:50 AM66 °FClear.9 mph73%30.15 "Hg10 mi
2:20 AM66 °FClear.9 mph73%30.15 "Hg10 mi
1:50 AM66 °FClear.8 mph68%30.12 "Hg10 mi
6:50 PM
Jul 22
81 °FPassing clouds.14 mph48%30.07 "HgN/A
6:20 PM82 °FSunny.10 mph48%30.04 "Hg10 mi
5:50 PM82 °FPassing clouds.10 mph45%30.04 "HgN/A
5:20 PM81 °FBroken clouds.9 mph51%30.04 "HgN/A
4:50 PM81 °FBroken clouds.7 mph51%30.07 "HgN/A
4:20 PM82 °FBroken clouds.9 mph51%30.07 "HgN/A
3:50 PM82 °FBroken clouds.10 mph45%30.07 "HgN/A
3:20 PM81 °FBroken clouds.13 mph51%30.07 "HgN/A
2:50 PM79 °FBroken clouds.10 mph48%30.07 "HgN/A
2:20 PM81 °FBroken clouds.10 mph48%30.07 "HgN/A
1:50 PM79 °FBroken clouds.15 mph54%30.07 "HgN/A
1:20 PM79 °FPartly sunny.10 mph54%30.07 "HgN/A
Weather by CustomWeather, © 2014

See weather overviewHow to use our weather pages